sat.trackr.live / text

‹ back to catalog

STARLINK-31245

NORAD 58891 · 2024-020R

PAYLOAD ACTIVE UNKNOWN

§ Identity

Operator
Country
US
Launch date
2024-01-29
Launch site
AFWTR
Launch vehicle
Mass (kg)
RCS (m²)

Purposes: comms

External: N2YO · Heavens-Above · Gunter

§ Orbital elements

Epoch: 2026-05-25T02:19:34.688928Z

Period
93.85 min
Inclination
53.1622°
Eccentricity
0.0001061
Mean motion
15.34390727 rev/d
Perigee alt
462.0 km
Apogee alt
463.5 km
Semi-major
6,840.9 km
B*
4.8128e-5
RAAN
285.5406°
Arg perigee
92.4924°
Mean anomaly
267.6200°
Rev number
13,151

§ Raw data

STARLINK-312451 58891U 24020R   26145.09692927  .00001250  00000+0  48128-4 0  99952 58891  53.1622 285.5406 0001061  92.4924 267.6200 15.34390727131515

JSON: /api/v1/satellites/58891 · /tle

For live sub-satellite position, see the globe view (requires WebGL).

§ Visibility from observer

Set your observer location to see the next 7 days of passes ≥ 10°. The values pass through the URL so the page stays shareable.

No JS? Fill the form by hand. The geolocation button needs JavaScript.